• In Deutschland
  • Länderverzeichnis
  • Für 7 Tage
  • Wassertemperatur
  • Satellitenkarten
  • Wetterkarte
  • Widgets
  • user-avatar
    Anmelden

    Stündliche Wetter Goldehe Sande

    Heute, 18 August, Freitag

    Zeit Temperatur Niederschläge Wind Luftdruck Luftfeuchtigkeit
    00:00 +24°C° 0 mm 6 m/S 759 mmHg 43%
    01:00 +24°C° 0 mm 6 m/S 759 mmHg 42%
    02:00 +24°C° 0 mm 6 m/S 759 mmHg 41%
    03:00 +23°C° 0 mm 6 m/S 759 mmHg 43%
    04:00 +23°C° 0 mm 7 m/S 759 mmHg 44%
    05:00 +23°C° 0 mm 7 m/S 759 mmHg 46%
    06:00 +24°C° 0 mm 7 m/S 759 mmHg 44%
    07:00 +26°C° 0 mm 6 m/S 759 mmHg 42%
    08:00 +28°C° 0 mm 6 m/S 759 mmHg 39%
    09:00 +30°C° 0 mm 6 m/S 759 mmHg 35%
    10:00 +33°C° 0 mm 6 m/S 759 mmHg 31%
    11:00 +35°C° 0 mm 6 m/S 759 mmHg 27%
    12:00 +35°C° 0 mm 7 m/S 759 mmHg 27%
    13:00 +36°C° 0 mm 7 m/S 759 mmHg 27%
    14:00 +36°C° 0 mm 7 m/S 759 mmHg 27%
    15:00 +35°C° 0 mm 7 m/S 759 mmHg 30%
    16:00 +34°C° 0 mm 7 m/S 759 mmHg 33%
    17:00 +33°C° 0 mm 6 m/S 759 mmHg 36%
    18:00 +30°C° 0 mm 6 m/S 759 mmHg 45%
    19:00 +28°C° 0 mm 5 m/S 759 mmHg 54%
    20:00 +26°C° 0 mm 4 m/S 759 mmHg 63%
    21:00 +25°C° 0 mm 4 m/S 759 mmHg 65%
    22:00 +25°C° 0 mm 4 m/S 759 mmHg 66%
    23:00 +25°C° 0 mm 4 m/S 759 mmHg 67%

    Morgen, 19 August, Samstag

    Zeit Temperatur Niederschläge Wind Luftdruck Luftfeuchtigkeit
    00:00 +23°C° 0 mm 4 m/S 759 mmHg 65%
    01:00 +23°C° 0 mm 5 m/S 759 mmHg 63%
    02:00 +23°C° 0 mm 5 m/S 759 mmHg 60%
    03:00 +23°C° 0 mm 5 m/S 759 mmHg 58%
    04:00 +23°C° 0 mm 6 m/S 759 mmHg 57%
    05:00 +22°C° 0 mm 6 m/S 759 mmHg 55%
    06:00 +24°C° 0 mm 6 m/S 759 mmHg 51%
    07:00 +27°C° 0 mm 6 m/S 759 mmHg 47%
    08:00 +29°C° 0 mm 6 m/S 759 mmHg 42%
    09:00 +30°C° 0 mm 6 m/S 759 mmHg 37%
    10:00 +33°C° 0 mm 6 m/S 759 mmHg 31%
    11:00 +35°C° 0 mm 6 m/S 759 mmHg 25%
    12:00 +35°C° 0 mm 6 m/S 759 mmHg 26%
    13:00 +35°C° 0 mm 6 m/S 759 mmHg 26%
    14:00 +36°C° 0 mm 6 m/S 759 mmHg 27%
    15:00 +35°C° 0 mm 6 m/S 759 mmHg 31%
    16:00 +34°C° 0 mm 6 m/S 758 mmHg 35%
    17:00 +33°C° 0 mm 6 m/S 758 mmHg 39%
    18:00 +30°C° 0 mm 6 m/S 758 mmHg 46%
    19:00 +28°C° 0 mm 5 m/S 759 mmHg 53%
    20:00 +26°C° 0 mm 4 m/S 759 mmHg 61%
    21:00 +26°C° 0 mm 4 m/S 759 mmHg 61%
    22:00 +25°C° 0 mm 4 m/S 759 mmHg 61%
    23:00 +25°C° 0 mm 4 m/S 759 mmHg 62%

    übermorgen, 20 August, Sonntag

    Zeit Temperatur Niederschläge Wind Luftdruck Luftfeuchtigkeit
    00:00 +25°C° 0 mm 4 m/S 759 mmHg 61%
    01:00 +23°C° 0 mm 4 m/S 758 mmHg 61%
    02:00 +23°C° 0 mm 5 m/S 758 mmHg 60%
    03:00 +23°C° 0 mm 5 m/S 758 mmHg 60%
    04:00 +22°C° 0 mm 5 m/S 758 mmHg 60%
    05:00 +22°C° 0 mm 5 m/S 758 mmHg 60%
    06:00 +25°C° 0 mm 5 m/S 758 mmHg 55%
    07:00 +26°C° 0 mm 5 m/S 758 mmHg 50%
    08:00 +28°C° 0 mm 5 m/S 759 mmHg 45%
    09:00 +29°C° 0 mm 5 m/S 758 mmHg 43%
    10:00 +32°C° 0 mm 5 m/S 758 mmHg 41%
    11:00 +33°C° 0 mm 4 m/S 758 mmHg 39%
    12:00 +34°C° 0 mm 4 m/S 758 mmHg 39%
    13:00 +34°C° 0 mm 4 m/S 758 mmHg 39%
    14:00 +34°C° 0 mm 4 m/S 758 mmHg 39%
    15:00 +34°C° 0 mm 4 m/S 757 mmHg 41%
    16:00 +33°C° 0 mm 4 m/S 757 mmHg 44%
    17:00 +32°C° 0 mm 4 m/S 757 mmHg 46%
    18:00 +29°C° 0 mm 4 m/S 757 mmHg 56%
    19:00 +27°C° 0 mm 3 m/S 757 mmHg 66%
    20:00 +25°C° 0 mm 2 m/S 757 mmHg 76%
    21:00 +25°C° 0 mm 2 m/S 757 mmHg 80%
    22:00 +24°C° 0 mm 1 m/S 757 mmHg 83%
    23:00 +24°C° 0 mm 1 m/S 757 mmHg 86%

    21 August, Montag

    Zeit Temperatur Niederschläge Wind Luftdruck Luftfeuchtigkeit
    00:00 +23°C° 0 mm 1 m/S 757 mmHg 86%
    01:00 +23°C° 0 mm 1 m/S 757 mmHg 85%
    02:00 +23°C° 0 mm 1 m/S 756 mmHg 85%
    03:00 +23°C° 0 mm 2 m/S 756 mmHg 83%
    04:00 +21°C° 0 mm 3 m/S 756 mmHg 82%
    05:00 +21°C° 0 mm 3 m/S 756 mmHg 81%
    06:00 +22°C° 0 mm 4 m/S 756 mmHg 75%
    07:00 +23°C° 0 mm 5 m/S 757 mmHg 68%
    08:00 +26°C° 0 mm 5 m/S 757 mmHg 62%
    09:00 +27°C° 0 mm 5 m/S 757 mmHg 56%
    10:00 +29°C° 0 mm 4 m/S 757 mmHg 49%
    11:00 +31°C° 0 mm 3 m/S 757 mmHg 42%
    12:00 +33°C° 0 mm 3 m/S 756 mmHg 41%
    13:00 +33°C° 0 mm 3 m/S 756 mmHg 39%
    14:00 +34°C° 0 mm 3 m/S 755 mmHg 38%
    15:00 +33°C° 0 mm 3 m/S 755 mmHg 41%
    16:00 +31°C° 0 mm 3 m/S 755 mmHg 45%
    17:00 +30°C° 0 mm 3 m/S 755 mmHg 48%
    18:00 +28°C° 0,2 mm 4 m/S 755 mmHg 56%
    19:00 +26°C° 0,2 mm 5 m/S 756 mmHg 64%
    20:00 +23°C° 0,2 mm 6 m/S 756 mmHg 72%
    21:00 +21°C° 0,4 mm 7 m/S 757 mmHg 75%
    22:00 +20°C° 0,4 mm 8 m/S 757 mmHg 79%
    23:00 +18°C° 0,4 mm 9 m/S 757 mmHg 83%

    22 August, Dienstag

    Zeit Temperatur Niederschläge Wind Luftdruck Luftfeuchtigkeit
    00:00 +17°C° 0,3 mm 9 m/S 758 mmHg 84%
    01:00 +17°C° 0,3 mm 8 m/S 758 mmHg 85%
    02:00 +17°C° 0,3 mm 7 m/S 758 mmHg 85%
    03:00 +16°C° 0,1 mm 7 m/S 758 mmHg 82%
    04:00 +16°C° 0,1 mm 8 m/S 759 mmHg 79%
    05:00 +16°C° 0,1 mm 8 m/S 759 mmHg 76%
    06:00 +17°C° 0 mm 8 m/S 759 mmHg 70%
    07:00 +18°C° 0 mm 9 m/S 760 mmHg 64%
    08:00 +19°C° 0 mm 9 m/S 760 mmHg 58%
    09:00 +22°C° 0 mm 9 m/S 760 mmHg 53%
    10:00 +24°C° 0 mm 8 m/S 760 mmHg 47%
    11:00 +26°C° 0 mm 7 m/S 760 mmHg 42%
    12:00 +27°C° 0 mm 5 m/S 760 mmHg 41%
    13:00 +27°C° 0 mm 4 m/S 760 mmHg 39%
    14:00 +28°C° 0 mm 3 m/S 759 mmHg 38%
    15:00 +27°C° 0 mm 3 m/S 759 mmHg 39%
    16:00 +27°C° 0 mm 3 m/S 759 mmHg 41%
    17:00 +27°C° 0 mm 3 m/S 759 mmHg 43%
    18:00 +25°C° 0,1 mm 4 m/S 759 mmHg 50%
    19:00 +23°C° 0,1 mm 4 m/S 760 mmHg 58%
    20:00 +21°C° 0,1 mm 5 m/S 760 mmHg 65%
    21:00 +20°C° 0,8 mm 4 m/S 760 mmHg 70%
    22:00 +19°C° 0,8 mm 3 m/S 760 mmHg 75%
    23:00 +18°C° 0,8 mm 2 m/S 760 mmHg 80%

    23 August, Mittwoch

    Zeit Temperatur Niederschläge Wind Luftdruck Luftfeuchtigkeit
    00:00 +18°C° 0,1 mm 3 m/S 760 mmHg 78%
    01:00 +17°C° 0,1 mm 4 m/S 760 mmHg 77%
    02:00 +16°C° 0,1 mm 5 m/S 760 mmHg 75%
    03:00 +16°C° 0 mm 5 m/S 761 mmHg 75%
    04:00 +16°C° 0 mm 5 m/S 761 mmHg 75%
    05:00 +15°C° 0 mm 6 m/S 761 mmHg 74%
    06:00 +17°C° 0 mm 5 m/S 761 mmHg 69%
    07:00 +19°C° 0 mm 5 m/S 762 mmHg 63%
    08:00 +20°C° 0 mm 5 m/S 762 mmHg 57%
    09:00 +22°C° 0 mm 4 m/S 762 mmHg 51%
    10:00 +25°C° 0 mm 4 m/S 762 mmHg 44%
    11:00 +26°C° 0 mm 3 m/S 763 mmHg 37%
    12:00 +27°C° 0 mm 3 m/S 762 mmHg 35%
    13:00 +28°C° 0 mm 3 m/S 762 mmHg 34%
    14:00 +29°C° 0 mm 2 m/S 762 mmHg 32%
    15:00 +28°C° 0 mm 3 m/S 762 mmHg 34%
    16:00 +28°C° 0 mm 4 m/S 762 mmHg 36%
    17:00 +28°C° 0 mm 4 m/S 762 mmHg 38%
    18:00 +26°C° 0 mm 4 m/S 762 mmHg 47%
    19:00 +23°C° 0 mm 4 m/S 762 mmHg 56%
    20:00 +21°C° 0 mm 4 m/S 763 mmHg 64%
    21:00 +21°C° 0 mm 4 m/S 763 mmHg 66%
    22:00 +21°C° 0 mm 3 m/S 763 mmHg 68%
    23:00 +21°C° 0 mm 3 m/S 763 mmHg 70%
    Mehr zeigen